TimeCDT,TemperatureF,Dew PointF,Humidity,Sea Level PressureIn,VisibilityMPH,Wind Direction,Wind SpeedMPH,Gust SpeedMPH,PrecipitationIn,Events,Conditions,WindDirDegrees,DateUTC
12:53 AM,66.0,57.0,73,30.02,10.0,South,5.8,-,N/A,,Clear,180,2013-04-10 05:53:00
1:53 AM,64.0,57.0,78,30.01,10.0,South,5.8,-,N/A,,Clear,170,2013-04-10 06:53:00
2:53 AM,66.0,59.0,78,30.00,10.0,South,8.1,-,N/A,,Clear,170,2013-04-10 07:53:00
3:53 AM,66.9,57.9,73,29.98,10.0,South,11.5,-,N/A,,Clear,170,2013-04-10 08:53:00
4:53 AM,64.0,55.9,75,29.98,10.0,South,6.9,-,N/A,,Clear,180,2013-04-10 09:53:00
5:53 AM,63.0,55.0,75,29.99,10.0,Calm,Calm,-,N/A,,Partly Cloudy,0,2013-04-10 10:53:00
6:53 AM,61.0,55.0,81,30.01,10.0,ESE,4.6,-,N/A,,Partly Cloudy,110,2013-04-10 11:53:00
7:53 AM,68.0,57.0,68,30.05,10.0,Calm,Calm,-,N/A,,Scattered Clouds,0,2013-04-10 12:53:00
8:53 AM,71.1,57.0,61,30.06,10.0,South,6.9,-,N/A,,Scattered Clouds,180,2013-04-10 13:53:00
9:53 AM,75.9,57.9,54,30.05,10.0,SSW,8.1,-,N/A,,Partly Cloudy,200,2013-04-10 14:53:00
10:53 AM,78.1,57.9,50,30.05,10.0,SSW,11.5,19.6,N/A,,Partly Cloudy,210,2013-04-10 15:53:00
11:53 AM,80.6,57.2,45,30.06,10.0,SW,10.4,16.1,N/A,,Partly Cloudy,220,2013-04-10 16:53:00
12:53 PM,82.9,59.0,44,30.02,10.0,SSW,9.2,-,N/A,,Partly Cloudy,200,2013-04-10 17:53:00
1:53 PM,84.0,57.9,41,30.00,10.0,SSW,9.2,-,N/A,,Partly Cloudy,200,2013-04-10 18:53:00
2:53 PM,84.9,55.9,37,29.96,10.0,SSE,10.4,-,N/A,,Partly Cloudy,160,2013-04-10 19:53:00
3:53 PM,86.0,55.9,36,29.93,10.0,South,11.5,20.7,N/A,,Scattered Clouds,170,2013-04-10 20:53:00
4:53 PM,84.9,55.0,36,29.90,10.0,South,11.5,-,N/A,,Partly Cloudy,170,2013-04-10 21:53:00
5:53 PM,84.0,55.9,38,29.88,10.0,South,9.2,-,N/A,,Partly Cloudy,170,2013-04-10 22:53:00
6:53 PM,80.1,55.0,42,29.86,10.0,SSE,12.7,-,N/A,,Mostly Cloudy,160,2013-04-10 23:53:00
7:53 PM,75.9,57.0,52,29.83,10.0,SSE,12.7,-,N/A,,Mostly Cloudy,150,2013-04-11 00:53:00
8:53 PM,73.9,55.9,53,29.83,10.0,SSE,9.2,-,N/A,,Mostly Cloudy,160,2013-04-11 01:53:00
9:53 PM,71.1,57.0,61,29.85,10.0,SSE,6.9,-,N/A,,Overcast,150,2013-04-11 02:53:00
10:53 PM,73.0,55.9,55,29.86,10.0,SSE,10.4,-,N/A,,Overcast,160,2013-04-11 03:53:00
11:53 PM,72.0,57.0,59,29.84,10.0,SSE,11.5,-,N/A,,Overcast,160,2013-04-11 04:53:00